Weather History for Abingdon, VA

Change the Weather History Date:

Monday, February 17, 2014

  Actual Average (KTRI) Record (KTRI)
Temperature  
Mean Temperature 37 °F 40 °F  
Max Temperature 50 °F 50 °F 71 °F (2011)
Min Temperature 24 °F 29 °F -3 °F (1958)
Degree Days  
Heating Degree Days 28 26  
Month to date heating degree days 464  
Since 1 July heating degree days 3118  
Cooling Degree Days 0 0  
Month to date cooling degree days 0  
Year to date cooling degree days 0  
Moisture  
Dew Point 30 °F    
Average Humidity 75    
Maximum Humidity 99    
Minimum Humidity 47    
Precipitation  
Precipitation 0.04 in 0.13 in 1.75 in (1944)
Month to date precipitation 2.13  
Year to date precipitation 5.50  
Snow  
Snow 0.00 in 0.10 in - ()
Month to date snowfall 2.2  
Since 1 July snowfall 9.6  
Snow Depth -    
Sea Level Pressure  
Sea Level Pressure 30.11 in    
Wind  
Wind Speed 5 mph (ESE)    
Max Wind Speed 14 mph    
Max Gust Speed 10 mph    
Visibility 10 miles    
Events Rain    
T = Trace of Precipitation, MM = Missing Value Source: NWS Daily Summary

Daily Weather History Graph

Daily Weather History Graph

Search for Another Location

Airport:

Trip Planner

Search our weather history database for the weather conditions in past years. The results will help you decide how hot, cold, wet, or windy it might be!

Date:

Astronomy

Feb. 17, 2014 Rise Set
Actual Time 7:14 AM EST 6:10 PM EST
Civil Twilight 6:47 AM EST 6:37 PM EST
Nautical Twilight 6:17 AM EST 7:07 PM EST
Astronomical Twilight 5:47 AM EST 7:37 PM EST
Moon 8:58 PM EST (2/17) 8:18 AM EST (2/17)
Length of Visible Light 11h 49m
Length of Day
10h 56m
Waning Gibbous, 93% of the Moon is Illuminated
Feb 17
Waning Gibbous
Feb 22
Last Quarter
Mar 1
New
Mar 8
First Quarter
Mar 16
Full

Hourly Weather History & Observations

Time (EST) Temp. Windchill Dew Point Humidity Pressure Visibility Wind Dir Wind Speed Gust Speed Precip Events Conditions
12:15 AM 34.0 °F 31.0 °F 29.1 °F 82% 30.16 in 10.0 mi NW 3.5 mph - N/A   Clear
12:35 AM 32.7 °F 28.3 °F 29.1 °F 87% 30.16 in 10.0 mi NNW 4.6 mph - N/A   Clear
12:55 AM 32.7 °F 28.3 °F 28.4 °F 84% 30.17 in 10.0 mi NNW 4.6 mph - N/A   Clear
1:15 AM 32.0 °F - 28.4 °F 87% 30.17 in 10.0 mi Calm Calm - N/A   Clear
1:35 AM 31.8 °F 28.5 °F 28.2 °F 87% 30.16 in 10.0 mi NNW 3.5 mph - N/A   Clear
1:55 AM 30.6 °F - 27.9 °F 90% 30.17 in 10.0 mi Calm Calm - N/A   Clear
2:15 AM 30.2 °F - 27.1 °F 88% 30.18 in 10.0 mi Calm Calm - N/A   Clear
2:35 AM 28.8 °F - 25.7 °F 88% 30.18 in 10.0 mi Calm Calm - N/A   Clear
2:55 AM 26.8 °F 22.8 °F 25.3 °F 94% 30.18 in 10.0 mi ESE 3.5 mph - N/A   Clear
3:15 AM 26.8 °F - 25.9 °F 96% 30.18 in 7.0 mi Calm Calm - N/A   Clear
3:35 AM 27.0 °F - 26.1 °F 96% 30.18 in 10.0 mi Calm Calm - N/A   Clear
3:55 AM 25.2 °F - 24.3 °F 96% 30.19 in 7.0 mi Calm Calm - N/A   Clear
4:15 AM 25.0 °F - 24.4 °F 98% 30.19 in 7.0 mi Calm Calm - N/A   Clear
4:35 AM 24.4 °F - 23.9 °F 98% 30.18 in 7.0 mi Calm Calm - N/A   Clear
4:55 AM 24.8 °F - 24.6 °F 99% 30.19 in 7.0 mi Calm Calm - N/A   Clear
5:15 AM 24.6 °F 18.8 °F 23.9 °F 97% 30.19 in 7.0 mi ESE 4.6 mph - N/A   Clear
5:35 AM 24.3 °F - 23.9 °F 99% 30.20 in 7.0 mi Calm Calm - N/A   Clear
5:55 AM 24.1 °F 16.0 °F 23.7 °F 99% 30.20 in 7.0 mi East 6.9 mph - N/A   Clear
6:15 AM 25.3 °F 19.7 °F 24.8 °F 98% 30.20 in 10.0 mi ENE 4.6 mph - N/A   Clear
6:35 AM 27.9 °F 24.0 °F 25.9 °F 92% 30.20 in 10.0 mi East 3.5 mph - N/A   Clear
6:55 AM 27.5 °F 23.6 °F 25.7 °F 93% 30.21 in 10.0 mi East 3.5 mph - N/A   Clear
7:15 AM 26.6 °F 21.2 °F 24.6 °F 92% 30.21 in 10.0 mi East 4.6 mph - N/A   Clear
7:35 AM 26.6 °F 19.1 °F 25.2 °F 94% 30.21 in 10.0 mi East 6.9 mph - N/A   Clear
7:55 AM 27.5 °F 20.2 °F 25.7 °F 93% 30.21 in 10.0 mi East 6.9 mph - N/A   Clear
8:15 AM 28.6 °F 20.7 °F 26.4 °F 92% 30.21 in 10.0 mi East 8.1 mph - N/A   Clear
8:35 AM 29.3 °F 20.8 °F 26.6 °F 90% 30.21 in 10.0 mi East 9.2 mph - N/A   Clear
8:55 AM 30.6 °F 20.2 °F 27.1 °F 87% 30.20 in 10.0 mi East 13.8 mph - N/A   Clear
9:15 AM 31.8 °F 23.9 °F 27.5 °F 84% 30.20 in 10.0 mi East 9.2 mph - N/A   Clear
9:35 AM 32.5 °F 23.7 °F 27.7 °F 82% 30.20 in 10.0 mi East 11.5 mph - N/A   Clear
9:55 AM 34.2 °F 27.5 °F 28.6 °F 80% 30.19 in 10.0 mi East 8.1 mph - N/A   Clear
10:15 AM 34.7 °F 28.8 °F 28.9 °F 79% 30.20 in 10.0 mi East 6.9 mph - N/A   Clear
10:35 AM 36.3 °F 30.1 °F 29.3 °F 76% 30.19 in 10.0 mi East 8.1 mph - N/A   Clear
10:55 AM 38.3 °F 31.9 °F 29.5 °F 71% 30.19 in 10.0 mi East 9.2 mph - N/A   Clear
11:15 AM 38.5 °F 32.7 °F 28.9 °F 69% 30.19 in 10.0 mi East 8.1 mph - N/A   Scattered Clouds
11:35 AM 39.9 °F 34.5 °F 28.8 °F 64% 30.18 in 10.0 mi East 8.1 mph - N/A   Mostly Cloudy
11:55 AM 40.8 °F 35.0 °F 27.7 °F 60% 30.17 in 10.0 mi ESE 9.2 mph - N/A   Scattered Clouds
12:15 PM 41.5 °F 35.9 °F 27.7 °F 58% 30.16 in 10.0 mi ESE 9.2 mph - N/A   Scattered Clouds
12:35 PM 42.1 °F 37.7 °F 28.2 °F 58% 30.15 in 10.0 mi ESE 6.9 mph - N/A   Mostly Cloudy
12:55 PM 42.4 °F 36.5 °F 27.5 °F 56% 30.12 in 10.0 mi ESE 10.4 mph - N/A   Mostly Cloudy
1:15 PM 44.1 °F 38.6 °F 28.9 °F 55% 30.11 in 10.0 mi East 10.4 mph - N/A   Mostly Cloudy
1:35 PM 45.0 °F 40.1 °F 29.5 °F 55% 30.09 in 10.0 mi East 9.2 mph - N/A   Scattered Clouds
1:55 PM 45.7 °F 41.0 °F 29.5 °F 53% 30.08 in 10.0 mi East 9.2 mph - N/A   Clear
2:15 PM 46.9 °F - 30.0 °F 52% 30.06 in 10.0 mi ESE 9.2 mph - N/A   Clear
2:35 PM 47.5 °F - 30.4 °F 52% 30.06 in 10.0 mi East 8.1 mph - N/A   Clear
2:55 PM 48.6 °F - 30.6 °F 50% 30.05 in 10.0 mi East 8.1 mph - N/A   Clear
3:15 PM 49.1 °F - 30.2 °F 48% 30.05 in 10.0 mi East 6.9 mph - N/A   Clear
3:35 PM 50.0 °F - 30.6 °F 47% 30.04 in 10.0 mi East 6.9 mph - N/A   Clear
3:55 PM 50.4 °F - 32.0 °F 49% 30.02 in 10.0 mi ESE 8.1 mph - N/A   Clear
4:15 PM 50.0 °F - 32.4 °F 51% 30.02 in 10.0 mi East 8.1 mph - N/A   Clear
4:35 PM 48.4 °F - 32.7 °F 55% 30.01 in 10.0 mi East 9.2 mph - N/A   Clear
4:55 PM 49.5 °F - 32.9 °F 53% 30.00 in 10.0 mi ESE 6.9 mph - N/A   Clear
5:15 PM 50.9 °F - 31.8 °F 48% 30.00 in 10.0 mi South 6.9 mph 10.4 mph N/A   Clear
5:35 PM 49.1 °F - 30.6 °F 49% 30.01 in 10.0 mi South 8.1 mph - N/A   Clear
5:55 PM 48.2 °F - 30.6 °F 51% 30.02 in 10.0 mi South 8.1 mph - N/A   Mostly Cloudy
6:15 PM 47.7 °F - 30.9 °F 52% 29.98 in 10.0 mi SSE 10.4 mph - N/A   Overcast
6:35 PM 46.4 °F 42.9 °F 31.6 °F 56% 30.01 in 10.0 mi SE 6.9 mph - N/A   Overcast
6:55 PM 46.2 °F 41.2 °F 31.1 °F 56% 30.00 in 10.0 mi SSE 10.4 mph - N/A   Overcast
7:15 PM 45.7 °F 42.0 °F 31.3 °F 57% 30.00 in 10.0 mi SSE 6.9 mph - N/A   Overcast
7:35 PM 45.9 °F 41.7 °F 31.3 °F 57% 29.99 in 10.0 mi SSE 8.1 mph - N/A   Overcast
7:55 PM 46.0 °F 41.4 °F 31.6 °F 57% 29.99 in 10.0 mi SSE 9.2 mph - N/A   Overcast
8:15 PM 45.5 °F 42.5 °F 32.0 °F 59% 29.99 in 10.0 mi South 5.8 mph - N/A Rain Light Rain
8:35 PM 45.5 °F 42.5 °F 32.5 °F 61% 29.99 in 10.0 mi SSE 5.8 mph - N/A Rain Light Rain
8:55 PM 45.1 °F 43.7 °F 32.5 °F 61% 30.00 in 10.0 mi SSE 3.5 mph - N/A Rain Light Rain
9:15 PM 43.3 °F 40.7 °F 35.1 °F 73% 30.01 in 10.0 mi ESE 4.6 mph - N/A Rain Light Rain
9:35 PM 42.6 °F - 35.6 °F 76% 30.02 in 10.0 mi Calm Calm - N/A Rain Light Rain
9:55 PM 41.4 °F - 37.8 °F 87% 30.03 in 10.0 mi Calm Calm - 0.01 in Rain Light Rain
10:15 PM 41.2 °F - 38.3 °F 89% 30.06 in 10.0 mi Calm Calm - 0.02 in Rain Light Rain
10:35 PM 40.6 °F 37.5 °F 38.7 °F 93% 30.06 in 5.0 mi SSE 4.6 mph - 0.03 in Rain Light Rain
10:55 PM 40.5 °F 38.4 °F 39.2 °F 95% 30.05 in 10.0 mi SSW 3.5 mph - 0.03 in   Overcast
11:15 PM 40.1 °F - 39.4 °F 97% 30.06 in 10.0 mi Calm Calm - N/A   Overcast
11:35 PM 41.4 °F 38.4 °F 40.8 °F 98% 30.06 in 10.0 mi WSW 4.6 mph - N/A   Overcast
11:55 PM 43.2 °F 37.4 °F 41.4 °F 93% 30.04 in 10.0 mi WSW 10.4 mph - N/A   Overcast